[[{"header":{"parameterUnit":"m.s-1","parameterCategory":1,"la1":30.2991,"la2":30.254,"lo1":-89.0895,"lo2":-89.0444,"dy":0.0017,"dx":0.0017,"nx":28,"ny":28,"refTime":"2024-04-08T03:00:00:Z","depth":0,"parameterNumber":2,"parameterNumberName":"U-component_of_WINDS"},"data":[0,0,0,0,0,0,0,0,0,0,0,0,0,0,0,0,0,0,0,0,0,0,0,0,0,0,0,0,0,0,0,0,0,0,0,0,0,0,0,0,0,0,0,0,0,0,0,0,0,0,0,0,0,0,0,0,0,0,-6.1329,-6.1328,0,-6.1258,-6.1257,-6.1257,-6.1135,-6.1133,-6.1131,-6.1129,-6.1056,-6.1057,-6.1057,0,0,0,0,0,0,0,0,0,0,0,0,0,-6.1358,-6.1358,-6.1329,-6.1328,-6.1327,-6.1258,-6.1257,-6.1256,-6.1136,-6.1133,-6.113,-6.1127,-6.1056,-6.1057,-6.1057,0,0,0,0,0,0,0,0,0,0,0,0,0,-6.1323,-6.1359,-6.1329,-6.1259,-6.1252,-6.1259,-6.1257,-6.1256,-6.1136,-6.1133,-6.1129,-6.1126,-6.1056,-6.1057,-6.1057,-6.1127,0,0,-6.1058,-6.1058,0,0,0,0,0,0,0,0,-6.1325,-6.1322,-6.127,-6.1263,-6.1256,-6.1202,-6.1241,-6.1213,-6.1137,-6.118,-6.1128,-6.1125,-6.1108,-6.1104,-6.1098,-6.1124,-6.1121,-6.1058,-6.1058,-6.1058,-6.1058,0,0,0,0,0,0,0,-6.1327,-6.1324,-6.1301,-6.1269,-6.1261,-6.123,-6.1221,-6.1235,-6.1164,-6.1176,-6.1167,-6.116,-6.1103,-6.1098,-6.1095,-6.112,-6.1058,-6.1058,-6.1058,-6.1058,-6.1195,-6.1198,0,0,0,0,0,0,-6.134,-6.1327,-6.1303,-6.1299,-6.1282,-6.1232,-6.1222,-6.1223,-6.1163,-6.1151,-6.1163,-6.1155,-6.1099,-6.1095,-6.1092,-6.1167,-6.1058,-6.1058,-6.1059,-6.1192,-6.1196,-6.12,0,0,0,0,0,0,-6.1341,-6.1339,-6.1306,-6.131,-6.1304,-6.1236,-6.1237,-6.1223,-6.1217,-6.1154,-6.114,-6.1171,-6.1096,-6.1092,-6.1118,-6.1163,-6.1059,-6.1059,-6.1188,-6.1193,-6.1198,-6.1319,0,0,0,0,0,0,-6.1343,-6.134,-6.1367,-6.1312,-6.1304,-6.1334,-6.124,-6.1224,-6.1218,-6.1207,-6.1157,-6.1146,-6.1093,-6.1118,-6.1119,-6.1161,-6.1059,-6.1183,-6.119,-6.1196,-6.1311,-6.1328,-6.1342,0,0,0,0,0,-6.1344,-6.1405,-6.1369,-6.1367,-6.1335,-6.1337,-6.1332,-6.127,-6.1223,-6.1248,-6.1206,-6.1147,-6.1159,-6.1122,-6.1121,-6.1165,-6.118,-6.1188,-6.1196,-6.1304,-6.1324,-6.1342,0,0,0,0,0,0,-6.1467,-6.1396,-6.1355,-6.14,-6.1375,-6.1316,-6.1346,-6.1295,-6.1283,-6.1273,-6.1196,-6.1186,-6.1222,-6.1196,-6.1157,-6.1227,-6.116,-6.1168,-6.1242,-6.1262,-6.1277,-6.1281,-6.1059,0,0,0,0,0,-6.1499,-6.1507,-6.1444,-6.149,-6.1479,-6.1416,-6.1414,-6.1368,-6.1339,-6.1328,-6.1289,-6.1263,-6.126,-6.126,-6.1254,-6.1307,-6.1293,-6.1337,-6.1352,-6.1366,-6.1372,-6.1395,-6.1412,-6.1225,-6.1225,-6.1225,0,0,-6.1566,-6.1528,-6.1537,-6.1513,-6.1489,-6.1497,-6.1407,-6.1421,-6.1425,-6.133,-6.1351,-6.1322,-6.1288,-6.1327,-6.1343,-6.1307,-6.1421,-6.1376,-6.1387,-6.1386,-6.1404,-6.1422,-6.1438,-6.123,-6.1229,-6.1229,0,0,-6.169,-6.1664,-6.1697,-6.1674,-6.1638,-6.1594,-6.1603,-6.1551,-6.1528,-6.1548,-6.1476,-6.1481,-6.1479,-6.1456,-6.1445,-6.156,-6.1503,-6.156,-6.1641,-6.1664,-6.1679,-6.1691,-6.1728,-6.1743,-6.1568,-6.1568,-6.1568,0,-6.1777,-6.1787,-6.1721,-6.1737,-6.1727,-6.1642,-6.1673,-6.1655,-6.1619,-6.1613,-6.1575,-6.1568,-6.1539,-6.157,-6.1598,-6.1593,-6.1597,-6.1564,-6.1682,-6.1694,-6.1705,-6.1739,-6.1754,-6.1575,-6.1574,-6.1573,-6.1573,0,-6.1894,-6.1902,-6.1933,-6.1898,-6.1893,-6.1918,-6.1854,-6.1856,-6.1811,-6.1772,-6.1792,-6.1755,-6.1738,-6.1743,-6.17,-6.1767,-6.1745,-6.1696,-6.1626,-6.173,-6.1761,-6.1774,-6.1585,-6.1582,-6.158,-6.1579,0,0,-6.2092,-6.202,-6.2032,-6.2014,-6.1968,-6.1972,-6.1993,-6.1976,-6.1977,-6.1956,-6.1969,-6.1968,-6.1921,-6.1908,-6.1861,-6.1882,-6.197,-6.1829,-6.1827,-6.1853,-6.2037,-6.2072,-6.2089,-6.1934,-6.1937,-6.1939,-6.2039,0,-6.2203,-6.2233,-6.2173,-6.2216,-6.2221,-6.214,-6.2156,-6.2129,-6.2093,-6.2091,-6.2052,-6.2051,-6.1991,-6.1981,-6.1998,-6.1956,-6.2006,-6.1949,-6.1943,-6.1943,-6.195,-6.2105,-6.2143,-6.2239,-6.2051,-6.2053,-6.2054,0,-6.2337,-6.232,-6.2364,-6.2312,-6.2312,-6.2328,-6.2306,-6.2307,-6.2274,-6.2246,-6.2231,-6.2176,-6.219,-6.2126,-6.2142,-6.2105,-6.2099,-6.2078,-6.208,-6.2074,-6.2003,-6.21,-6.2269,-6.2282,-6.2074,-6.2072,-6.2071,0,-6.2472,-6.2461,-6.2484,-6.2473,-6.2414,-6.2427,-6.2403,-6.2367,-6.236,-6.2341,-6.2335,-6.232,-6.231,-6.2298,-6.224,-6.2199,-6.2262,-6.2194,-6.2237,-6.2238,-6.2251,-6.225,-6.2418,-6.2255,-6.2255,-6.2254,-6.2254,0,-6.26,-6.2629,-6.2544,-6.2558,-6.2587,-6.2519,-6.255,-6.2518,-6.2486,-6.2491,-6.2421,-6.2428,-6.2352,-6.235,-6.2305,-6.2323,-6.2321,-6.2296,-6.2283,-6.23,-6.2303,-6.2293,-6.2283,-6.2258,-6.2257,-6.2257,-6.2256,0,-6.2754,-6.2699,-6.2718,-6.2661,-6.2648,-6.2671,-6.2622,-6.2632,-6.2592,-6.2599,-6.2597,-6.2534,-6.2527,-6.2468,-6.245,-6.2419,-6.2453,-6.2429,-6.2464,-6.2454,-6.2499,-6.2494,-6.2663,-6.2679,-6.2511,-6.2512,-6.2514,0,-6.2837,-6.2857,-6.2802,-6.28,-6.278,-6.2779,-6.2771,-6.2705,-6.2699,-6.2662,-6.2676,-6.2664,-6.265,-6.2643,-6.2594,-6.2579,-6.2551,-6.2611,-6.2548,-6.2563,-6.2547,-6.2544,-6.2544,-6.2623,-6.2626,-6.2628,-6.2629,0,-6.299,-6.2961,-6.2952,-6.2934,-6.2926,-6.2909,-6.2887,-6.289,-6.2816,-6.2813,-6.2806,-6.2795,-6.2775,-6.2762,-6.2738,-6.2712,-6.2657,-6.265,-6.2658,-6.2673,-6.2691,-6.2678,-6.2496,-6.2645,-6.2644,-6.2642,-6.2642,-6.2641,-6.3107,-6.312,-6.3082,-6.3075,-6.3051,-6.3032,-6.3037,-6.2998,-6.299,-6.2968,-6.293,-6.2927,-6.2891,-6.2852,-6.2831,-6.2826,-6.2795,-6.2808,-6.2811,-6.2814,-6.2821,-6.2695,-6.2822,-6.2822,-6.2821,-6.2821,-6.2821,0,-6.3252,-6.3224,-6.3218,-6.3189,-6.3182,-6.3133,-6.3106,-6.3103,-6.3101,-6.3073,-6.306,-6.305,-6.3037,-6.2988,-6.297,-6.2975,-6.2949,-6.2972,-6.2969,-6.2963,-6.2853,-6.2845,-6.2993,-6.2993,-6.2993,-6.2993,-6.2993,-6.2993,-6.3326,-6.3344,-6.3311,-6.3316,-6.3287,-6.3284,-6.3272,-6.3253,-6.3229,-6.3221,-6.321,-6.3178,-6.314,-6.3118,-6.3103,-6.3089,-6.3083,-6.3114,-6.3091,-6.2988,-6.2971,-6.2955,-6.2948,-6.3114,-6.3115,-6.32,-6.3201,-6.3202]},{"header":{"parameterUnit":"m.s-1","parameterCategory":1,"la1":30.2991,"la2":30.254,"lo1":-89.0895,"lo2":-89.0444,"dy":0.0017,"dx":0.0017,"nx":28,"ny":28,"refTime":"2024-04-08T03:00:00:Z","depth":0,"parameterNumber":3,"parameterNumberName":"V-component_of_WINDS"},"data":[0,0,0,0,0,0,0,0,0,0,0,0,0,0,0,0,0,0,0,0,0,0,0,0,0,0,0,0,0,0,0,0,0,0,0,0,0,0,0,0,0,0,0,0,0,0,0,0,0,0,0,0,0,0,0,0,0,0,0.5051,0.505,0,0.5016,0.5016,0.5015,0.4993,0.4993,0.4993,0.4993,0.4956,0.4955,0.4954,0,0,0,0,0,0,0,0,0,0,0,0,0,0.5098,0.5097,0.5051,0.505,0.505,0.5016,0.5016,0.5015,0.4993,0.4993,0.4993,0.4993,0.4956,0.4955,0.4954,0,0,0,0,0,0,0,0,0,0,0,0,0,0.5072,0.5097,0.5051,0.5035,0.5033,0.5016,0.5016,0.5015,0.4993,0.4993,0.4993,0.4993,0.4956,0.4955,0.4954,0.4949,0,0,0.495,0.4949,0,0,0,0,0,0,0,0,0.5074,0.507,0.5038,0.5036,0.5034,0.5009,0.5019,0.4993,0.4993,0.5008,0.4993,0.4993,0.4973,0.4971,0.4965,0.4948,0.4946,0.495,0.4949,0.4948,0.4948,0,0,0,0,0,0,0,0.5075,0.5072,0.5037,0.5037,0.5035,0.503,0.5026,0.5014,0.4992,0.5007,0.5005,0.5002,0.4972,0.4966,0.4964,0.4946,0.495,0.4948,0.4948,0.4947,0.4928,0.4928,0,0,0,0,0,0,0.508,0.5073,0.5038,0.5036,0.5054,0.5029,0.5025,0.5017,0.4992,0.4988,0.5002,0.5001,0.4968,0.4965,0.4962,0.4958,0.4948,0.4947,0.4946,0.4928,0.4928,0.4928,0,0,0,0,0,0,0.5081,0.5077,0.5039,0.5054,0.5049,0.5028,0.502,0.5017,0.501,0.4989,0.4985,0.4999,0.4968,0.4964,0.4954,0.4957,0.4946,0.4945,0.4927,0.4928,0.4928,0.4949,0,0,0,0,0,0,0.5082,0.5077,0.5075,0.5054,0.5048,0.5032,0.502,0.5016,0.5008,0.5006,0.4985,0.4981,0.4967,0.4956,0.4953,0.4955,0.4944,0.4927,0.4927,0.4928,0.4948,0.495,0.4952,0,0,0,0,0,0.5084,0.5081,0.5075,0.5071,0.5045,0.5032,0.5028,0.5013,0.5008,0.5006,0.4993,0.4982,0.4957,0.4955,0.4951,0.4953,0.4927,0.4927,0.4928,0.4947,0.4949,0.4952,0,0,0,0,0,0,0.51,0.5078,0.5071,0.5061,0.5049,0.5028,0.5025,0.5016,0.5004,0.5002,0.4984,0.4979,0.4972,0.4961,0.4959,0.4949,0.4941,0.494,0.4957,0.4959,0.4961,0.4964,0.4943,0,0,0,0,0,0.5103,0.5094,0.5075,0.5068,0.5062,0.5045,0.5038,0.5028,0.5014,0.5009,0.4995,0.4981,0.4971,0.4964,0.4953,0.4946,0.4943,0.4946,0.4948,0.495,0.495,0.4949,0.4951,0.493,0.493,0.493,0,0,0.5108,0.5095,0.509,0.5071,0.506,0.5053,0.504,0.5031,0.5026,0.5007,0.4998,0.4987,0.4971,0.4964,0.496,0.4955,0.4955,0.495,0.4952,0.4951,0.495,0.4952,0.4953,0.4931,0.4931,0.493,0,0,0.5113,0.5102,0.5096,0.5087,0.5072,0.5061,0.506,0.5041,0.5034,0.5025,0.5012,0.5005,0.4986,0.4977,0.4969,0.4976,0.4966,0.4973,0.4983,0.4982,0.4984,0.4985,0.499,0.4991,0.4973,0.4973,0.4973,0,0.5121,0.5109,0.5094,0.5088,0.5081,0.5066,0.5061,0.5052,0.5034,0.503,0.5025,0.5004,0.4992,0.4984,0.4986,0.498,0.498,0.4975,0.4985,0.4986,0.4987,0.4991,0.4993,0.4974,0.4974,0.4974,0.4974,0,0.512,0.5112,0.511,0.5095,0.5088,0.5082,0.5068,0.5063,0.5054,0.5044,0.5037,0.5022,0.501,0.5007,0.4997,0.4999,0.4996,0.4988,0.4979,0.499,0.4994,0.4995,0.4976,0.4975,0.4975,0.4975,0,0,0.5132,0.5113,0.5112,0.5107,0.5091,0.5085,0.508,0.5069,0.5066,0.5055,0.5051,0.5038,0.5032,0.5023,0.5013,0.5012,0.5022,0.5005,0.5004,0.501,0.5026,0.5033,0.5035,0.5016,0.5016,0.5016,0.5028,0,0.5136,0.5127,0.5116,0.511,0.5104,0.5092,0.5088,0.5078,0.507,0.5064,0.5054,0.5046,0.5037,0.5033,0.5032,0.5021,0.5025,0.502,0.5013,0.5013,0.5018,0.5036,0.5043,0.5054,0.5029,0.5029,0.5029,0,0.5139,0.5131,0.5126,0.5114,0.5111,0.5108,0.5099,0.5093,0.5083,0.5077,0.5071,0.5061,0.5056,0.5048,0.5043,0.504,0.5037,0.5031,0.5032,0.5031,0.5022,0.5037,0.5057,0.506,0.5031,0.5031,0.5031,0,0.5151,0.5139,0.5135,0.513,0.5116,0.5115,0.5109,0.5099,0.5094,0.5087,0.5084,0.5076,0.5071,0.5066,0.5054,0.5049,0.5051,0.5041,0.5047,0.5048,0.5048,0.5048,0.5069,0.5044,0.5044,0.5044,0.5044,0,0.5157,0.5154,0.5141,0.5138,0.5136,0.5125,0.5123,0.5116,0.5108,0.5105,0.5093,0.5091,0.5075,0.5071,0.5063,0.5061,0.5058,0.5055,0.5052,0.5056,0.5057,0.5054,0.5053,0.5045,0.5044,0.5044,0.5044,0,0.5169,0.5159,0.5155,0.5144,0.5141,0.514,0.5131,0.5129,0.5121,0.5118,0.5116,0.5104,0.5099,0.5088,0.5079,0.5073,0.5075,0.507,0.5079,0.5077,0.5085,0.5085,0.5105,0.5108,0.508,0.508,0.5081,0,0.5174,0.5172,0.5162,0.516,0.5155,0.5151,0.5148,0.5137,0.5134,0.5125,0.5125,0.512,0.5115,0.5108,0.5099,0.5093,0.5089,0.5097,0.5088,0.5093,0.5091,0.5092,0.5093,0.5098,0.5099,0.5099,0.5099,0,0.5184,0.518,0.5176,0.5172,0.5169,0.5164,0.5159,0.5158,0.5146,0.5143,0.514,0.5136,0.513,0.5125,0.5119,0.5113,0.5105,0.5103,0.5104,0.5108,0.5114,0.5113,0.5085,0.5102,0.5102,0.5101,0.5101,0.5101,0.5193,0.5193,0.5187,0.5184,0.5179,0.5176,0.5175,0.5169,0.5166,0.516,0.5154,0.5152,0.5146,0.5137,0.5132,0.5131,0.5126,0.5127,0.5128,0.5129,0.5131,0.5114,0.5129,0.5129,0.5129,0.5129,0.5129,0,0.5204,0.5201,0.5198,0.5193,0.5192,0.5186,0.5181,0.518,0.5178,0.5174,0.5171,0.5168,0.5165,0.5157,0.5153,0.5154,0.515,0.5153,0.5153,0.5153,0.5135,0.5135,0.5157,0.5157,0.5157,0.5157,0.5157,0.5157,0.521,0.521,0.5207,0.5206,0.5202,0.5201,0.5199,0.5197,0.5193,0.5191,0.519,0.5185,0.518,0.5177,0.5174,0.5172,0.5172,0.5177,0.5173,0.5156,0.5154,0.5151,0.5151,0.5176,0.5176,0.5192,0.5192,0.5192]}]]